CW3518 Weather Reports


Display with metric or nautical units.
time (UTC)temp
F
wind
direction
speed
MPH
gust
MPH
rain 1hr
in
rain 24hr
in
rain mn
in
humidity
%
barometer
mb
20260905143016 85 248 9.0 11.0 0.00 0.03 0.00 67 1015.1
20260905142515 84 299 6.0 7.0 0.00 0.03 0.00 68 1015.1
20260905142015 84 243 7.0 10.0 0.00 0.03 0.00 69 1015.1
20260905141515 83 241 5.0 10.0 0.00 0.03 0.00 71 1015.1
20260905140515 83 195 6.0 8.0 0.00 0.03 0.00 72 1015.0
20260905140015 82 237 6.0 10.0 0.00 0.03 0.00 73 1015.0
20260905135515 82 229 5.0 10.0 0.00 0.03 0.00 75 1015.0
20260905135015 82 221 9.0 10.0 0.00 0.03 0.00 75 1015.0
20260905134515 81 219 7.0 7.0 0.00 0.03 0.00 76 1015.0
20260905134015 81 205 5.0 6.0 0.00 0.03 0.00 77 1015.0
20260905133515 81 196 4.0 6.0 0.00 0.03 0.00 77 1015.0
20260905132014 79 217 6.0 6.0 0.00 0.03 0.00 80 1014.9
20260905131514 79 202 4.0 4.0 0.00 0.03 0.00 80 1014.9
20260905131014 79 172 2.0 5.0 0.00 0.03 0.00 81 1014.9
20260905130514 78 135 3.0 5.0 0.00 0.03 0.00 82 1014.9
20260905130014 78 102 3.0 4.0 0.00 0.03 0.00 83 1014.8
20260905125514 77 68 3.0 4.0 0.00 0.03 0.00 83 1014.8
20260905125014 77 42 3.0 3.0 0.00 0.03 0.00 84 1014.8
20260905124514 77 7 3.0 3.0 0.00 0.03 0.00 84 1014.7
20260905123514 77 322 3.0 4.0 0.00 0.03 0.00 85 1014.6
20260905123014 76 262 4.0 4.0 0.00 0.03 0.00 86 1014.5
20260905122514 76 259 4.0 4.0 0.00 0.03 0.00 86 1014.4
20260905122014 77 259 3.0 5.0 0.00 0.03 0.00 85 1014.5
20260905121514 77 245 4.0 5.0 0.00 0.03 0.00 85 1014.4
20260905121014 77 233 5.0 5.0 0.00 0.03 0.00 85 1014.4
20260905120514 76 229 5.0 5.0 0.00 0.03 0.00 86 1014.4
20260905120014 76 241 4.0 5.0 0.00 0.03 0.00 85 1014.4
20260905115514 76 228 4.0 5.0 0.00 0.03 0.00 85 1014.3
20260905115014 76 228 5.0 6.0 0.00 0.03 0.00 85 1014.1
20260905114513 76 233 5.0 6.0 0.00 0.03 0.00 84 1014.1
20260905114013 77 228 5.0 6.0 0.00 0.03 0.00 84 1014.0
20260905113513 77 221 5.0 6.0 0.00 0.03 0.00 84 1014.0
20260905113013 77 225 6.0 6.0 0.00 0.03 0.00 84 1014.0
20260905112513 77 227 5.0 6.0 0.00 0.03 0.00 83 1014.0
20260905112013 77 206 5.0 6.0 0.00 0.03 0.00 83 1014.0
20260905111513 77 212 5.0 5.0 0.00 0.03 0.00 83 1014.1
20260905111013 77 216 4.0 5.0 0.00 0.03 0.00 83 1014.1
20260905110513 77 225 4.0 4.0 0.00 0.03 0.00 83 1014.2
20260905110013 78 235 4.0 4.0 0.00 0.03 0.00 82 1014.3
20260905105513 78 243 4.0 5.0 0.00 0.03 0.00 82 1014.2
20260905105013 78 241 3.0 5.0 0.00 0.03 0.00 81 1014.2
20260905104012 78 176 5.0 8.0 0.00 0.03 0.00 81 1014.0
20260905103512 78 172 6.0 8.0 0.00 0.03 0.00 81 1013.9
20260905103013 78 163 6.0 7.0 0.00 0.03 0.00 81 1013.9
20260905102512 78 167 5.0 7.0 0.00 0.03 0.00 81 1014.0
20260905102013 78 155 5.0 7.0 0.00 0.03 0.00 81 1014.0
20260905101512 78 148 6.0 7.0 0.00 0.03 0.00 81 1013.9
20260905101012 78 144 6.0 7.0 0.00 0.03 0.00 80 1013.9
20260905100512 78 147 6.0 6.0 0.00 0.03 0.00 80 1014.0
20260905100012 79 156 5.0 5.0 0.00 0.03 0.00 79 1014.0
20260905095512 79 165 4.0 6.0 0.00 0.03 0.00 79 1014.0
20260905095012 79 191 5.0 6.0 0.00 0.03 0.00 78 1014.0
20260905094512 79 163 5.0 6.0 0.00 0.03 0.00 78 1014.1
20260905094012 79 191 4.0 6.0 0.00 0.03 0.00 78 1014.1
20260905093512 79 204 3.0 5.0 0.00 0.03 0.00 78 1014.1
20260905093012 79 202 3.0 5.0 0.00 0.03 0.00 77 1014.1
20260905092012 80 205 4.0 7.0 0.00 0.03 0.00 77 1014.0
20260905091512 80 212 6.0 7.0 0.00 0.03 0.00 76 1014.0
20260905091011 80 210 6.0 7.0 0.00 0.03 0.00 76 1013.9
20260905090511 80 210 7.0 7.0 0.00 0.03 0.00 76 1013.9
20260905090012 79 220 6.0 7.0 0.00 0.03 0.00 76 1013.8
20260905085511 79 228 6.0 7.0 0.00 0.03 0.00 76 1013.7
20260905085012 80 231 6.0 7.0 0.00 0.03 0.00 76 1013.6
20260905084511 80 230 6.0 7.0 0.00 0.03 0.00 76 1013.6
20260905084012 80 231 7.0 7.0 0.00 0.03 0.00 75 1013.6
20260905083511 80 233 7.0 8.0 0.00 0.03 0.00 75 1013.6
20260905082511 80 223 6.0 8.0 0.00 0.03 0.00 74 1013.7
20260905082011 80 225 7.0 8.0 0.00 0.03 0.00 74 1013.6
20260905081511 80 224 7.0 8.0 0.00 0.03 0.00 73 1013.6
20260905081011 81 226 7.0 7.0 0.00 0.03 0.00 73 1013.6
20260905080511 81 230 5.0 7.0 0.00 0.03 0.00 73 1013.6
20260905075510 81 221 6.0 7.0 0.00 0.03 0.00 72 1013.7
20260905074011 81 237 5.0 7.0 0.00 0.03 0.00 70 1013.9
20260905073511 82 231 6.0 7.0 0.00 0.03 0.00 69 1013.9
20260905073010 82 223 7.0 9.0 0.00 0.03 0.00 68 1013.9
20260905072510 82 224 6.0 9.0 0.00 0.03 0.00 68 1013.9
20260905071511 83 214 7.0 9.0 0.00 0.03 0.00 66 1013.9
20260905070510 83 199 6.0 7.0 0.00 0.03 0.00 65 1013.9
20260905070010 84 203 6.0 7.0 0.00 0.03 0.00 65 1014.0
20260905065510 84 197 4.0 7.0 0.00 0.03 0.00 64 1014.0
20260905065010 84 185 5.0 7.0 0.00 0.03 0.00 64 1014.0
20260905064510 84 200 6.0 6.0 0.00 0.03 0.00 63 1014.0
20260905064010 84 185 4.0 6.0 0.00 0.03 0.00 63 1014.0
20260905063010 85 186 6.0 7.0 0.00 0.03 0.00 62 1014.0
20260905062510 85 194 5.0 8.0 0.00 0.03 0.00 62 1014.0
20260905061009 85 195 8.0 11.0 0.00 0.03 0.00 60 1013.9
20260905060009 86 170 8.0 11.0 0.00 0.03 0.00 60 1013.7
20260905055509 86 191 7.0 10.0 0.00 0.03 0.00 60 1013.7
20260905055009 86 184 7.0 10.0 0.00 0.03 0.00 60 1013.7
20260905054509 86 204 9.0 10.0 0.00 0.03 0.00 60 1013.7
20260905054010 86 194 7.0 10.0 0.00 0.03 0.00 60 1013.7
20260905053509 86 189 8.0 9.0 0.00 0.03 0.00 60 1013.7
20260905053009 86 190 7.0 9.0 0.00 0.03 0.00 60 1013.7
20260905052509 86 197 7.0 9.0 0.00 0.03 0.00 59 1013.7
20260905052009 86 178 5.0 9.0 0.00 0.03 0.00 59 1013.6
20260905051509 86 177 7.0 9.0 0.00 0.03 0.00 59 1013.5
20260905051010 86 181 7.0 8.0 0.00 0.03 0.00 58 1013.5
20260905050508 86 189 6.0 8.0 0.00 0.03 0.00 58 1013.6
20260905050008 86 180 7.0 9.0 0.00 0.03 0.00 57 1013.5
20260905045008 87 164 7.0 12.0 0.00 0.03 0.03 56 1013.5
20260905044509 87 160 9.0 12.0 0.00 0.03 0.03 56 1013.5
20260905044008 87 162 10.0 11.0 0.00 0.03 0.03 55 1013.5
20260905043509 87 163 10.0 11.0 0.00 0.03 0.03 55 1013.5
20260905043008 87 159 10.0 12.0 0.00 0.03 0.03 54 1013.5
20260905041509 87 142 7.0 9.0 0.00 0.03 0.03 52 1013.5
20260905041008 88 143 8.0 10.0 0.00 0.03 0.03 52 1013.4
20260905040008 88 140 9.0 11.0 0.00 0.03 0.03 52 1013.4
20260905035508 88 143 9.0 11.0 0.00 0.03 0.03 52 1013.4
20260905035008 88 143 9.0 9.0 0.00 0.03 0.03 52 1013.5
20260905034008 88 138 7.0 12.0 0.00 0.03 0.03 51 1013.4
20260905033509 89 137 10.0 11.0 0.00 0.03 0.03 51 1013.3
20260905033008 89 141 8.0 11.0 0.00 0.03 0.03 51 1013.3
20260905032009 89 146 8.0 13.0 0.00 0.03 0.03 51 1013.3
20260905031507 89 131 8.0 13.0 0.00 0.03 0.03 51 1013.3
20260905031007 89 140 9.0 13.0 0.00 0.03 0.03 51 1013.3
20260905030007 89 141 10.0 11.0 0.00 0.03 0.03 51 1013.2
20260905024007 89 135 9.0 12.0 0.00 0.03 0.03 52 1013.0
20260905023507 89 133 11.0 13.0 0.00 0.03 0.03 51 1012.9
20260905023007 90 134 9.0 13.0 0.00 0.03 0.03 51 1012.9
20260905022507 90 140 11.0 13.0 0.00 0.03 0.03 51 1012.8
20260905020506 90 138 13.0 15.0 0.00 0.03 0.03 51 1012.5
20260905020006 90 135 10.0 15.0 0.00 0.03 0.03 51 1012.5
20260905015507 90 128 7.0 9.0 0.00 0.03 0.03 52 1012.5
20260905015007 90 117 7.0 10.0 0.00 0.03 0.03 52 1012.4
20260905014506 90 123 7.0 10.0 0.00 0.03 0.03 52 1012.3
20260905014006 91 115 7.0 11.0 0.00 0.03 0.03 51 1012.2
20260905013506 91 121 9.0 11.0 0.00 0.03 0.03 51 1012.2
20260905013006 91 114 9.0 10.0 0.00 0.03 0.03 50 1012.0
20260905012506 91 113 9.0 10.0 0.00 0.03 0.03 49 1012.0
20260905012006 91 112 8.0 10.0 0.00 0.03 0.03 47 1012.0
20260905011006 92 121 7.0 9.0 0.00 0.03 0.03 46 1011.9
20260905010006 93 128 9.0 9.0 0.00 0.03 0.03 45 1011.8
20260905004506 93 145 7.0 10.0 0.00 0.03 0.03 43 1011.7
20260905003506 94 140 7.0 9.0 0.00 0.03 0.03 42 1011.5
20260905003006 95 155 6.0 12.0 0.00 0.03 0.03 42 1011.4
20260905002505 95 160 6.0 12.0 0.00 0.03 0.03 42 1011.3
20260905002005 95 168 8.0 11.0 0.00 0.03 0.03 41 1011.2
20260905001505 95 158 7.0 11.0 0.00 0.03 0.03 41 1011.2
20260905001005 96 166 11.0 13.0 0.00 0.03 0.03 41 1011.2
20260905000505 96 159 9.0 15.0 0.00 0.03 0.03 40 1011.2
20260905000006 96 155 15.0 15.0 0.00 0.03 0.03 40 1011.2
20260904235506 96 149 14.0 15.0 0.00 0.03 0.03 40 1011.2
20260904235005 96 164 12.0 15.0 0.00 0.03 0.03 40 1011.2
20260904234506 96 165 10.0 17.0 0.00 0.03 0.03 40 1011.2
20260904234005 96 152 8.0 17.0 0.00 0.03 0.03 40 1011.2
20260904233505 96 138 14.0 14.0 0.00 0.03 0.03 41 1011.2
20260904233005 96 127 12.0 15.0 0.00 0.03 0.03 40 1011.1
20260904232505 97 138 15.0 16.0 0.00 0.03 0.03 40 1011.1
20260904232006 97 168 9.0 16.0 0.00 0.03 0.03 40 1011.1
20260904231505 97 156 13.0 15.0 0.00 0.03 0.03 40 1011.1
20260904231005 97 171 7.0 12.0 0.00 0.03 0.03 40 1011.2
20260904230505 97 142 8.0 15.0 0.00 0.03 0.03 40 1011.2
20260904230005 96 172 8.0 20.0 0.00 0.03 0.03 40 1011.2
20260904225505 97 161 11.0 20.0 0.00 0.03 0.03 40 1011.2
20260904225005 97 111 13.0 18.0 0.00 0.03 0.03 40 1011.2
20260904224505 97 168 8.0 18.0 0.00 0.03 0.03 40 1011.3
20260904224005 97 144 7.0 13.0 0.00 0.03 0.03 40 1011.3
20260904223505 96 121 13.0 13.0 0.00 0.03 0.03 40 1011.3
20260904223035 97 150 10.0 15.0 0.00 0.03 0.03 39 1011.4
20260904222505 97 159 15.0 19.0 0.00 0.03 0.03 39 1011.4
20260904222006 97 138 14.0 19.0 0.00 0.03 0.03 39 1011.4
20260904221006 97 205 16.0 17.0 0.00 0.03 0.03 40 1011.4
20260904220505 97 183 13.0 15.0 0.00 0.03 0.03 40 1011.4
20260904220005 97 197 8.0 15.0 0.00 0.03 0.03 41 1011.5
20260904215505 97 190 11.0 15.0 0.00 0.03 0.03 41 1011.5
20260904215005 97 143 9.0 16.0 0.00 0.03 0.03 41 1011.5
20260904214504 97 176 5.0 18.0 0.00 0.03 0.03 42 1011.6
20260904214005 96 141 12.0 18.0 0.00 0.03 0.03 42 1011.5
20260904213504 96 123 13.0 16.0 0.00 0.03 0.03 42 1011.6
20260904213004 96 153 6.0 19.0 0.00 0.03 0.03 43 1011.8
20260904212504 96 165 17.0 19.0 0.00 0.03 0.03 42 1011.7
20260904212004 97 211 10.0 17.0 0.00 0.03 0.03 42 1011.8
20260904211004 96 201 15.0 17.0 0.00 0.03 0.03 42 1011.9
20260904210504 96 170 8.0 16.0 0.00 0.03 0.03 41 1012.0
20260904205504 96 164 13.0 15.0 0.00 0.03 0.03 40 1012.2
20260904204504 96 145 14.0 16.0 0.00 0.03 0.03 40 1012.3
20260904203504 96 165 9.0 15.0 0.00 0.03 0.03 40 1012.4
20260904203004 96 147 8.0 16.0 0.00 0.03 0.03 41 1012.4
20260904202504 96 178 12.0 16.0 0.00 0.03 0.03 42 1012.5
20260904202004 96 169 15.0 18.0 0.00 0.03 0.03 41 1012.5
20260904201504 96 134 15.0 18.0 0.00 0.03 0.03 41 1012.6
20260904201004 96 165 12.0 18.0 0.00 0.03 0.03 42 1012.6
20260904200504 96 168 8.0 16.0 0.00 0.03 0.03 43 1012.8
20260904195004 95 168 12.0 17.0 0.00 0.03 0.03 43 1012.9
20260904194003 96 168 11.0 16.0 0.00 0.03 0.03 43 1013.0
20260904193503 95 216 9.0 19.0 0.00 0.03 0.03 45 1013.1
20260904193003 95 175 8.0 19.0 0.00 0.03 0.03 44 1013.1
20260904192503 94 206 13.0 19.0 0.00 0.03 0.03 44 1013.1
20260904192003 94 215 12.0 20.0 0.00 0.03 0.03 44 1013.2
20260904191503 94 201 9.0 20.0 0.00 0.03 0.03 43 1013.2
20260904191003 95 209 19.0 19.0 0.00 0.03 0.03 42 1013.3
20260904190503 94 132 18.0 21.0 0.00 0.03 0.03 42 1013.4
20260904190003 93 194 7.0 21.0 0.00 0.03 0.03 44 1013.5
20260904184503 94 150 13.0 20.0 0.00 0.03 0.03 45 1013.6
20260904184002 93 155 19.0 20.0 0.00 0.03 0.03 45 1013.6
20260904182503 93 145 17.0 18.0 0.00 0.03 0.03 41 1013.9
20260904182002 92 198 10.0 18.0 0.00 0.03 0.03 41 1014.1
20260904181502 92 223 16.0 19.0 0.00 0.03 0.03 42 1014.1
20260904181002 91 201 16.0 19.0 0.00 0.03 0.03 42 1014.2
20260904180502 91 197 14.0 19.0 0.00 0.03 0.03 42 1014.2
20260904175502 91 211 13.0 19.0 0.00 0.03 0.03 47 1014.3
20260904175002 91 168 13.0 19.0 0.00 0.03 0.03 45 1014.3
20260904174532 92 188 13.0 19.0 0.00 0.03 0.03 44 1014.3
20260904174003 91 161 12.0 16.0 0.00 0.03 0.03 50 1014.3
20260904173502 91 201 14.0 17.0 0.00 0.03 0.03 51 1014.4
20260904173002 91 163 14.0 17.0 0.00 0.03 0.03 50 1014.5
20260904172002 89 191 7.0 16.0 0.00 0.03 0.03 56 1014.8
20260904171502 89 203 12.0 17.0 0.00 0.03 0.03 57 1014.7
20260904171001 88 223 16.0 17.0 0.00 0.03 0.03 57 1014.8
20260904165501 88 175 11.0 14.0 0.00 0.03 0.03 55 1014.9
20260904165001 88 213 13.0 15.0 0.00 0.03 0.03 55 1015.0
20260904164502 87 185 8.0 18.0 0.00 0.03 0.03 56 1015.1
20260904164002 87 215 16.0 18.0 0.00 0.03 0.03 55 1015.1
20260904163502 86 204 12.0 15.0 0.00 0.03 0.03 57 1015.1
20260904162501 86 204 13.0 17.0 0.00 0.03 0.03 58 1015.1
20260904162001 86 215 12.0 17.0 0.00 0.03 0.03 62 1015.1
20260904161001 85 195 12.0 14.0 0.00 0.03 0.03 66 1015.2
20260904160001 84 209 13.0 14.0 0.01 0.03 0.03 66 1015.2
20260904155501 84 202 11.0 14.0 0.01 0.03 0.03 67 1015.2
20260904155001 84 217 8.0 14.0 0.01 0.03 0.03 68 1015.1
20260904154501 84 198 11.0 14.0 0.02 0.03 0.03 68 1015.2
20260904154001 84 196 12.0 14.0 0.03 0.03 0.03 69 1015.1
20260904153001 84 158 7.0 13.0 0.03 0.03 0.03 71 1015.1
20260904152501 84 194 10.0 13.0 0.03 0.03 0.03 71 1015.1
20260904152001 84 192 9.0 18.0 0.03 0.03 0.03 71 1015.0
20260904151501 83 195 14.0 18.0 0.03 0.03 0.03 69 1015.0
20260904145501 81 170 8.0 12.0 0.02 0.02 0.02 81 1015.0
20260904144501 82 210 6.0 9.0 0.01 0.01 0.01 80 1015.0
20260904143500 82 184 6.0 11.0 0.00 0.00 0.00 80 1014.9